TimeEST,TemperatureF,Dew PointF,Humidity,Sea Level PressureIn,VisibilityMPH,Wind Direction,Wind SpeedMPH,Gust SpeedMPH,PrecipitationIn,Events,Conditions,WindDirDegrees,DateUTC
12:52 AM,50.0,48.9,96,30.15,1.5,East,3.5,-,0.08,Rain,Rain,100,2011-12-05 05:52:00
1:52 AM,50.0,48.9,96,30.13,2.5,ESE,5.8,-,0.08,Rain,Light Rain,110,2011-12-05 06:52:00
2:52 AM,50.0,50.0,100,30.13,2.5,SSE,6.9,-,0.07,Rain,Rain,150,2011-12-05 07:52:00
3:52 AM,51.1,50.0,96,30.12,3.0,South,6.9,-,0.12,Rain,Rain,170,2011-12-05 08:52:00
5:52 AM,51.1,50.0,96,30.11,4.0,SSE,5.8,-,0.08,Rain,Light Rain,160,2011-12-05 10:52:00
6:52 AM,51.1,51.1,100,30.13,3.0,South,4.6,-,0.08,Rain,Rain,170,2011-12-05 11:52:00
7:17 AM,51.8,51.8,100,30.13,3.0,South,4.6,-,0.06,Rain,Rain,170,2011-12-05 12:17:00
7:52 AM,52.0,51.1,97,30.13,3.0,South,5.8,-,0.11,Rain,Light Rain,170,2011-12-05 12:52:00
8:20 AM,51.8,51.8,100,30.14,2.5,South,6.9,-,0.07,Rain,Rain,170,2011-12-05 13:20:00
8:37 AM,51.8,51.8,100,30.14,1.5,SSW,3.5,-,0.12,Rain,Rain,210,2011-12-05 13:37:00
8:47 AM,48.2,48.2,100,30.13,1.5,NNW,13.8,-,0.16,Rain,Heavy Rain,330,2011-12-05 13:47:00
8:52 AM,48.0,46.9,96,30.14,1.5,NNW,12.7,-,0.18,Rain,Rain,330,2011-12-05 13:52:00
9:03 AM,46.4,46.4,100,30.14,1.5,NNW,10.4,-,0.03,Rain,Rain,340,2011-12-05 14:03:00
9:12 AM,46.4,46.4,100,30.14,1.5,NNW,11.5,-,0.04,Rain,Rain,330,2011-12-05 14:12:00
9:52 AM,46.9,46.0,97,30.13,1.5,North,11.5,-,0.15,Rain,Rain,10,2011-12-05 14:52:00
10:52 AM,46.9,46.0,97,30.13,1.5,ENE,5.8,-,0.12,Rain,Rain,60,2011-12-05 15:52:00
11:39 AM,48.2,46.4,93,30.08,1.5,East,8.1,-,0.17,Rain,Light Rain,90,2011-12-05 16:39:00
11:52 AM,48.0,46.9,96,30.07,1.5,East,8.1,-,0.19,Rain,Light Rain,80,2011-12-05 16:52:00
12:41 PM,48.2,48.2,100,30.03,1.5,East,4.6,-,0.10,Rain,Rain,100,2011-12-05 17:41:00
12:52 PM,48.9,48.9,100,30.02,1.5,East,4.6,-,0.12,Rain,Rain,100,2011-12-05 17:52:00
1:25 PM,50.0,48.2,94,30.00,1.5,East,4.6,-,0.08,Rain,Light Rain,90,2011-12-05 18:25:00
1:52 PM,51.1,50.0,96,29.99,1.5,East,4.6,-,0.15,Rain,Rain,80,2011-12-05 18:52:00
3:10 PM,50.0,48.2,94,29.98,0.2,North,12.7,-,0.07,Rain,Rain,350,2011-12-05 20:10:00
3:26 PM,48.2,48.2,100,29.99,2.0,NNW,13.8,-,0.17,Rain,Heavy Rain,340,2011-12-05 20:26:00
3:36 PM,48.2,48.2,100,29.99,0.8,North,13.8,-,0.25,Rain,Heavy Rain,350,2011-12-05 20:36:00
3:52 PM,48.0,46.9,96,29.99,2.0,North,11.5,-,0.35,Rain,Rain,360,2011-12-05 20:52:00
4:15 PM,48.2,46.4,93,30.00,1.0,North,12.7,-,0.08,Rain,Rain,350,2011-12-05 21:15:00
4:34 PM,46.4,46.4,100,30.00,2.5,North,15.0,-,0.16,Rain,Rain,350,2011-12-05 21:34:00
4:52 PM,46.4,44.6,93,30.01,2.5,North,16.1,-,N/A,Rain,Heavy Rain,350,2011-12-05 21:52:00
5:18 PM,44.6,44.6,100,30.03,3.0,North,12.7,-,0.10,Rain,Rain,360,2011-12-05 22:18:00
5:52 PM,45.0,44.1,97,30.03,4.0,North,9.2,-,0.23,Rain,Rain,10,2011-12-05 22:52:00
6:11 PM,44.6,44.6,100,30.02,5.0,NNE,10.4,-,0.02,Rain,Light Rain,20,2011-12-05 23:11:00
6:52 PM,45.0,43.0,93,30.02,8.0,North,9.2,-,0.05,Rain,Light Rain,10,2011-12-05 23:52:00
7:52 PM,44.1,42.1,93,30.03,9.0,North,13.8,-,0.01,Rain,Light Rain,10,2011-12-06 00:52:00
8:52 PM,43.0,42.1,97,30.06,5.0,NNW,13.8,-,0.02,Rain,Light Rain,340,2011-12-06 01:52:00
9:52 PM,41.0,39.9,96,30.07,5.0,North,18.4,25.3,0.04,Rain,Light Rain,10,2011-12-06 02:52:00
10:52 PM,39.9,37.9,93,30.07,10.0,North,15.0,-,0.01,,Light Drizzle,10,2011-12-06 03:52:00
11:52 PM,39.0,37.0,93,30.08,6.0,NNE,16.1,-,0.00,Rain,Light Rain,20,2011-12-06 04:52:00